Mc Cook Ben Nelson Regional Airport Mc Cook US
ICAO: KMCK
IATA: MCK
Category: Medium
Scheduled Services: No

Elevation: 2583 ft
TransAlt. 18000 ft.

Airport Communications:
ASOS:119.025
DENVER CNTR:118.475
COLUMBUS RDO:122.6
CTAF/UNICOM:122.8

KMCK Zoom In..

If you have problems with the map follow the link
https://www.worldairports.se/pages/airport.php?
ICAO=KMCK

Runways:

(A) RW 04 length 4000 ft width 75 ft
---- / hdg 38

(B) RW 12 length 6450 ft width 100 ft
ILS 110.95 / hdg 123

(C) RW 17 length 1350 ft width 160 ft
---- / hdg 173

(D) RW 22 length 4000 ft width 75 ft
---- / hdg 218

(E) RW 30 length 6450 ft width 100 ft
---- / hdg 303

(F) RW 35 length 1350 ft width 160 ft
---- / hdg 353

Location; KMCK
Day. 21 / Time. 23.53 Zulu
* Altimeter: 29.74
* Temperature: 21° c. 69.8°f.
* Wind from: 340° Speed 11 kn.
Dewpoint: 11° c.
Visibility: 10 Statute Miles.
Clouds: Few 7500 ft.

KMCK 212353Z AUTO 34011KT 10SM FEW075 21/11 A2974 RMK AO2 PK WND 01026/2258 SLP059 T02060106 10261 20206 53034 $


Wind From 340°
Speed 11 kn.

 
 
jpsmedia.com for Web Design worldairports.se 2019   terms of use